Regional Weather Roundup
Issued by NWS

Home | Current Version | Previous Version | Graphics & Text | Print | Product List | Glossary On
Versions: 1 2 3 4 5 6 7 8 9 10 11 12 13 14 15 16 17 18 19 20 21 22 23 24 25 26 27 28 29 30 31 32 33 34 35 36 37 38 39 40 41 42 43 44 45 46 47 48 49 50
000
ASUS43 KLMK 230110
RWRKY
KENTUCKY REGIONAL WEATHER ROUNDUP
NATIONAL WEATHER SERVICE LOUISVILLE KY
900 PM EDT FRI AUG 22 2014

NOTE "FAIR" INDICATES FEW OR NO CLOUDS BELOW 12,000 FEET
WITH NO SIGNIFICANT WEATHER AND/OR OBSTRUCTIONS TO VISIBILITY.

KYZ001>023-026-027-061>063-070>075-230200-
WESTERN AND SOUTH CENTRAL KENTUCKY

CITY           SKY/WX    TMP DP  RH WIND       PRES   REMARKS
PADUCAH        MOCLDY    87  76  69 SW3       29.94F HX  97
HENDERSON      MOCLDY    81  75  83 CALM      29.94S
OWENSBORO      LGT RAIN  83  78  84 CALM      29.96S HX  93
HOPKINSVILLE   PTCLDY    83  76  78 SW5       29.98R HX  91
BOWLING GREEN  PTCLDY    86  73  65 SW6       29.98R HX  93
GLASGOW        PTCLDY    82  73  74 CALM      30.00R
$$

KYZ024-025-028>034-038-045-046-053-230200-
NORTH CENTRAL KENTUCKY

CITY           SKY/WX    TMP DP  RH WIND       PRES   REMARKS
LOUISVILLE/SDF CLOUDY    76  71  85 SW12      30.01R
LOUISVILLE/LOU LGT RAIN  76  73  91 SW7       30.01S
FORT KNOX      TSTM      77  72  83 N30       30.02R
$$

KYZ035>037-039>044-047>052-055>060-089>105-230200-
NORTHEAST KENTUCKY

CITY           SKY/WX    TMP DP  RH WIND       PRES   REMARKS
LEXINGTON      TSTM      76  72  87 N7G17     30.01R
COVINGTON      PTCLDY    80  71  74 NW6       29.99R
FRANKFORT      CLOUDY    75  73  93 CALM      29.99S
$$

KYZ054-064>069-076>088-106>120-230200-
SOUTHEAST KENTUCKY

CITY           SKY/WX    TMP DP  RH WIND       PRES   REMARKS
JACKSON        LGT RAIN  72  69  90 VRB6      30.02S
LONDON         MOCLDY    82  71  69 CALM      30.03R
SOMERSET       CLOUDY    81  70  69 CALM      30.03R
MIDDLESBORO    PTCLDY    78  73  83 CALM      30.03R
MONTICELLO     CLEAR     77  75  93 CALM      30.04R
$$




USA.gov is the U.S. government's official web portal to all federal, state and local government web resources and services.